[[{"header":{"parameterUnit":"m.s-1","parameterCategory":1,"la1":30.2991,"la2":30.254,"lo1":-89.0895,"lo2":-89.0444,"dy":0.0017,"dx":0.0017,"nx":28,"ny":28,"refTime":"2024-10-20T03:00:00:Z","depth":0,"parameterNumber":2,"parameterNumberName":"U-component_of_WINDS"},"data":[0,0,0,0,0,0,0,0,0,0,0,0,0,0,0,0,0,0,0,0,0,0,0,0,0,0,0,0,0,0,0,0,0,0,0,0,0,0,0,0,0,0,0,0,0,0,0,0,0,0,0,0,0,0,0,0,0,0,-1.4074,-1.4074,0,-1.4043,-1.4042,-1.4042,-1.4025,-1.4025,-1.4025,-1.4025,-1.3992,-1.3992,-1.3991,0,0,0,0,0,0,0,0,0,0,0,0,0,-1.412,-1.4119,-1.4074,-1.4074,-1.4073,-1.4043,-1.4042,-1.4042,-1.4025,-1.4025,-1.4025,-1.4025,-1.3993,-1.3992,-1.3991,0,0,0,0,0,0,0,0,0,0,0,0,0,-1.4095,-1.4119,-1.4074,-1.4061,-1.406,-1.4043,-1.4042,-1.4042,-1.4025,-1.4025,-1.4025,-1.4025,-1.3993,-1.3992,-1.3991,-1.3984,0,0,-1.3987,-1.3986,0,0,0,0,0,0,0,0,-1.4097,-1.4094,-1.4064,-1.4062,-1.406,-1.4038,-1.4046,-1.4022,-1.4025,-1.4038,-1.4025,-1.4025,-1.4008,-1.4005,-1.3999,-1.3982,-1.3981,-1.3987,-1.3986,-1.3985,-1.3985,0,0,0,0,0,0,0,-1.4098,-1.4095,-1.4062,-1.4063,-1.4061,-1.4057,-1.4054,-1.4042,-1.4024,-1.4037,-1.4036,-1.4032,-1.4007,-1.4001,-1.3998,-1.3981,-1.3987,-1.3986,-1.3985,-1.3984,-1.3958,-1.3958,0,0,0,0,0,0,-1.4102,-1.4096,-1.4063,-1.4061,-1.4079,-1.4056,-1.4052,-1.4045,-1.4024,-1.402,-1.4032,-1.4032,-1.4003,-1.4,-1.3997,-1.3989,-1.3985,-1.3984,-1.3983,-1.3958,-1.3958,-1.3958,0,0,0,0,0,0,-1.4103,-1.4099,-1.4064,-1.4078,-1.4073,-1.4056,-1.4048,-1.4044,-1.4038,-1.402,-1.4017,-1.403,-1.4003,-1.3999,-1.3988,-1.3987,-1.3984,-1.3983,-1.3958,-1.3958,-1.3958,-1.3971,0,0,0,0,0,0,-1.4105,-1.41,-1.4097,-1.4078,-1.4073,-1.4055,-1.4047,-1.4044,-1.4036,-1.4035,-1.4016,-1.4013,-1.4002,-1.399,-1.3986,-1.3986,-1.3982,-1.3958,-1.3958,-1.3958,-1.3971,-1.3972,-1.3973,0,0,0,0,0,-1.4106,-1.4102,-1.4097,-1.4093,-1.4069,-1.4055,-1.4052,-1.4039,-1.4036,-1.4033,-1.4022,-1.4014,-1.3988,-1.3989,-1.3985,-1.3984,-1.3958,-1.3958,-1.3958,-1.397,-1.3972,-1.3973,0,0,0,0,0,0,-1.412,-1.4099,-1.4093,-1.4082,-1.4071,-1.4052,-1.4048,-1.404,-1.4029,-1.4028,-1.4013,-1.4009,-1.3999,-1.399,-1.3991,-1.3977,-1.3972,-1.3971,-1.3983,-1.3984,-1.3985,-1.3987,-1.398,0,0,0,0,0,-1.4122,-1.4112,-1.4094,-1.4086,-1.4081,-1.4066,-1.4059,-1.405,-1.4037,-1.4032,-1.402,-1.4008,-1.3997,-1.399,-1.3979,-1.397,-1.3966,-1.3967,-1.3968,-1.3969,-1.3969,-1.3964,-1.3965,-1.3958,-1.3958,-1.3958,0,0,-1.4125,-1.4113,-1.4107,-1.4089,-1.4079,-1.407,-1.4061,-1.4051,-1.4045,-1.4031,-1.4019,-1.401,-1.3995,-1.3986,-1.3981,-1.3978,-1.397,-1.3969,-1.397,-1.3969,-1.3964,-1.3965,-1.3966,-1.3958,-1.3958,-1.3958,0,0,-1.4127,-1.4116,-1.4109,-1.4099,-1.4084,-1.4074,-1.4073,-1.4055,-1.4049,-1.4037,-1.4027,-1.4019,-1.4,-1.3991,-1.3983,-1.3983,-1.3976,-1.398,-1.3985,-1.3981,-1.3981,-1.3982,-1.3982,-1.3982,-1.3979,-1.3979,-1.3979,0,-1.4133,-1.4119,-1.4106,-1.4097,-1.409,-1.4078,-1.407,-1.4062,-1.4044,-1.4039,-1.4036,-1.4013,-1.4002,-1.3991,-1.3991,-1.3985,-1.3983,-1.3982,-1.3982,-1.3982,-1.3983,-1.3983,-1.3983,-1.398,-1.398,-1.398,-1.398,0,-1.4128,-1.4118,-1.4114,-1.4098,-1.409,-1.4082,-1.4068,-1.4062,-1.4054,-1.4045,-1.4034,-1.4021,-1.4007,-1.4004,-1.3996,-1.3991,-1.399,-1.3985,-1.398,-1.3984,-1.3984,-1.3984,-1.3981,-1.3981,-1.3981,-1.398,0,0,-1.4136,-1.4114,-1.4113,-1.4106,-1.4089,-1.4081,-1.4073,-1.4061,-1.4056,-1.4044,-1.4037,-1.4023,-1.4018,-1.401,-1.4001,-1.3997,-1.3999,-1.3993,-1.3992,-1.3995,-1.3994,-1.3999,-1.3999,-1.3994,-1.3994,-1.3994,-1.3996,0,-1.4136,-1.4121,-1.411,-1.4099,-1.4091,-1.408,-1.4073,-1.4062,-1.4053,-1.4045,-1.4035,-1.4025,-1.4019,-1.4014,-1.401,-1.4,-1.3999,-1.3999,-1.3988,-1.3988,-1.3993,-1.3999,-1.4003,-1.4005,-1.3996,-1.3996,-1.3995,0,-1.4133,-1.4123,-1.4112,-1.4097,-1.4093,-1.4087,-1.4075,-1.4067,-1.4055,-1.4049,-1.404,-1.4032,-1.4023,-1.4019,-1.4008,-1.4009,-1.4004,-1.3998,-1.3998,-1.3996,-1.3992,-1.3998,-1.4005,-1.4006,-1.3995,-1.3995,-1.3995,0,-1.4142,-1.4125,-1.4116,-1.411,-1.4093,-1.4089,-1.4082,-1.4069,-1.4063,-1.4053,-1.4048,-1.4037,-1.4031,-1.4023,-1.4012,-1.401,-1.4002,-1.3996,-1.3997,-1.3997,-1.3996,-1.3996,-1.4002,-1.3992,-1.3992,-1.3992,-1.3992,0,-1.4143,-1.4136,-1.412,-1.4115,-1.4107,-1.4095,-1.4088,-1.408,-1.407,-1.4063,-1.4052,-1.4046,-1.4032,-1.4024,-1.4015,-1.4007,-1.4005,-1.4,-1.3998,-1.4001,-1.4002,-1.3997,-1.3997,-1.3992,-1.3992,-1.3992,-1.3992,0,-1.415,-1.4139,-1.4129,-1.4114,-1.411,-1.4105,-1.4092,-1.4087,-1.4078,-1.407,-1.4067,-1.4053,-1.4044,-1.4032,-1.4018,-1.4012,-1.4006,-1.4002,-1.401,-1.4009,-1.401,-1.4011,-1.4015,-1.4015,-1.4004,-1.4004,-1.4004,0,-1.4152,-1.4147,-1.4131,-1.4126,-1.4119,-1.4111,-1.4105,-1.4093,-1.4087,-1.4073,-1.407,-1.406,-1.4051,-1.4036,-1.4025,-1.4015,-1.4012,-1.4014,-1.401,-1.4014,-1.4012,-1.4013,-1.4013,-1.4015,-1.4015,-1.4015,-1.4015,0,-1.4156,-1.4151,-1.4142,-1.4132,-1.4125,-1.4116,-1.4107,-1.4103,-1.4089,-1.4083,-1.4074,-1.4067,-1.4054,-1.4044,-1.4033,-1.4026,-1.4018,-1.4017,-1.4016,-1.402,-1.4025,-1.4023,-1.4013,-1.4016,-1.4016,-1.4016,-1.4016,-1.4016,-1.416,-1.4156,-1.4145,-1.4136,-1.4128,-1.412,-1.4115,-1.4106,-1.4098,-1.4086,-1.408,-1.4071,-1.406,-1.4044,-1.4037,-1.403,-1.4028,-1.4027,-1.4027,-1.4027,-1.4028,-1.4026,-1.4028,-1.4028,-1.4028,-1.4028,-1.4028,0,-1.4164,-1.4157,-1.4149,-1.4137,-1.413,-1.4124,-1.4114,-1.4109,-1.4101,-1.4092,-1.4084,-1.4074,-1.4065,-1.4054,-1.4044,-1.4041,-1.4037,-1.4039,-1.4039,-1.4037,-1.4031,-1.4033,-1.4042,-1.4042,-1.4042,-1.4042,-1.4042,-1.4042,-1.4165,-1.4158,-1.4152,-1.4141,-1.4133,-1.4125,-1.412,-1.4113,-1.4105,-1.4095,-1.4087,-1.408,-1.407,-1.406,-1.4052,-1.4049,-1.4046,-1.4049,-1.4045,-1.4039,-1.4038,-1.4037,-1.4038,-1.4048,-1.4048,-1.4052,-1.4052,-1.4052]},{"header":{"parameterUnit":"m.s-1","parameterCategory":1,"la1":30.2991,"la2":30.254,"lo1":-89.0895,"lo2":-89.0444,"dy":0.0017,"dx":0.0017,"nx":28,"ny":28,"refTime":"2024-10-20T03:00:00:Z","depth":0,"parameterNumber":3,"parameterNumberName":"V-component_of_WINDS"},"data":[0,0,0,0,0,0,0,0,0,0,0,0,0,0,0,0,0,0,0,0,0,0,0,0,0,0,0,0,0,0,0,0,0,0,0,0,0,0,0,0,0,0,0,0,0,0,0,0,0,0,0,0,0,0,0,0,0,0,-1.6795,-1.6795,0,-1.685,-1.6851,-1.6851,-1.6919,-1.692,-1.6922,-1.6923,-1.6976,-1.6976,-1.6977,0,0,0,0,0,0,0,0,0,0,0,0,0,-1.6747,-1.6748,-1.6795,-1.6795,-1.6796,-1.685,-1.6851,-1.6851,-1.6919,-1.692,-1.6922,-1.6923,-1.6976,-1.6976,-1.6977,0,0,0,0,0,0,0,0,0,0,0,0,0,-1.6781,-1.6748,-1.6795,-1.6837,-1.6841,-1.685,-1.6851,-1.6852,-1.6919,-1.6921,-1.6922,-1.6924,-1.6976,-1.6976,-1.6977,-1.6948,0,0,-1.6979,-1.6979,0,0,0,0,0,0,0,0,-1.6779,-1.6783,-1.683,-1.6834,-1.6838,-1.688,-1.6854,-1.6884,-1.6918,-1.6889,-1.6923,-1.6924,-1.6942,-1.6946,-1.6952,-1.695,-1.6953,-1.6979,-1.6979,-1.6979,-1.698,0,0,0,0,0,0,0,-1.6777,-1.6781,-1.6816,-1.683,-1.6836,-1.6852,-1.6859,-1.686,-1.6906,-1.6892,-1.6897,-1.6903,-1.6945,-1.6952,-1.6954,-1.6954,-1.6979,-1.6979,-1.698,-1.698,-1.6935,-1.6933,0,0,0,0,0,0,-1.6769,-1.6779,-1.6815,-1.6818,-1.6813,-1.6852,-1.6859,-1.6865,-1.6906,-1.6914,-1.6901,-1.6906,-1.695,-1.6953,-1.6956,-1.6928,-1.6979,-1.698,-1.698,-1.6936,-1.6934,-1.6932,0,0,0,0,0,0,-1.6767,-1.6771,-1.6813,-1.68,-1.6807,-1.6851,-1.6856,-1.6865,-1.6872,-1.6913,-1.6922,-1.69,-1.6951,-1.6955,-1.6951,-1.6931,-1.698,-1.6981,-1.6938,-1.6936,-1.6933,-1.687,0,0,0,0,0,0,-1.6766,-1.677,-1.676,-1.6799,-1.6807,-1.6806,-1.6855,-1.6865,-1.6873,-1.6879,-1.6914,-1.6921,-1.6953,-1.6949,-1.6951,-1.6933,-1.6981,-1.694,-1.6937,-1.6934,-1.6874,-1.6865,-1.6858,0,0,0,0,0,-1.6764,-1.6738,-1.6759,-1.6763,-1.6795,-1.6805,-1.6809,-1.6847,-1.6871,-1.6861,-1.6888,-1.692,-1.6932,-1.6948,-1.6951,-1.6932,-1.6941,-1.6938,-1.6934,-1.6877,-1.6867,-1.6858,0,0,0,0,0,0,-1.6693,-1.6744,-1.6768,-1.6754,-1.6775,-1.6816,-1.6805,-1.6834,-1.6848,-1.6853,-1.6898,-1.6906,-1.6896,-1.6913,-1.693,-1.6908,-1.6942,-1.6939,-1.6897,-1.6888,-1.6881,-1.6877,-1.6982,0,0,0,0,0,-1.6677,-1.6681,-1.6725,-1.6708,-1.6718,-1.6759,-1.6765,-1.6793,-1.6815,-1.6824,-1.6851,-1.6871,-1.688,-1.6885,-1.6895,-1.6876,-1.6886,-1.6865,-1.6857,-1.6851,-1.6848,-1.6842,-1.6834,-1.6921,-1.6921,-1.6921,0,0,-1.6641,-1.667,-1.6669,-1.6695,-1.6715,-1.6718,-1.6766,-1.6767,-1.6771,-1.6824,-1.6822,-1.6842,-1.6868,-1.6857,-1.6854,-1.6872,-1.6826,-1.6846,-1.6841,-1.6841,-1.6838,-1.683,-1.6822,-1.6918,-1.6919,-1.6919,0,0,-1.658,-1.6601,-1.6591,-1.661,-1.664,-1.6668,-1.6666,-1.6703,-1.672,-1.6719,-1.676,-1.6764,-1.6778,-1.6796,-1.6806,-1.6755,-1.6785,-1.6756,-1.6716,-1.6711,-1.6704,-1.6698,-1.6682,-1.6676,-1.6753,-1.6753,-1.6753,0,-1.6532,-1.654,-1.6582,-1.6582,-1.6593,-1.6644,-1.6635,-1.6651,-1.6681,-1.6688,-1.6708,-1.6729,-1.6749,-1.6745,-1.6732,-1.6738,-1.6738,-1.6753,-1.6702,-1.6696,-1.6691,-1.6677,-1.667,-1.6749,-1.675,-1.675,-1.675,0,-1.6482,-1.6487,-1.6475,-1.6506,-1.6516,-1.6511,-1.6553,-1.6558,-1.6585,-1.6611,-1.6611,-1.6638,-1.6656,-1.6657,-1.6682,-1.6656,-1.6667,-1.6693,-1.6728,-1.6679,-1.6666,-1.6661,-1.6744,-1.6746,-1.6747,-1.6748,0,0,-1.6377,-1.6433,-1.6428,-1.6445,-1.6482,-1.6487,-1.6485,-1.6504,-1.6508,-1.6528,-1.6529,-1.6541,-1.6566,-1.6578,-1.6606,-1.6601,-1.6562,-1.6629,-1.663,-1.6617,-1.6539,-1.652,-1.6513,-1.6582,-1.6581,-1.658,-1.6537,0,-1.6324,-1.6326,-1.6365,-1.6355,-1.6362,-1.6411,-1.641,-1.6432,-1.6457,-1.6466,-1.6493,-1.6502,-1.6534,-1.6542,-1.6539,-1.6567,-1.6547,-1.6571,-1.6585,-1.6584,-1.6579,-1.6506,-1.6486,-1.6444,-1.6532,-1.6532,-1.6531,0,-1.6262,-1.6281,-1.6273,-1.6314,-1.6318,-1.6316,-1.6339,-1.6347,-1.6374,-1.6393,-1.6408,-1.6441,-1.6443,-1.6475,-1.6479,-1.6494,-1.6502,-1.6517,-1.6517,-1.6521,-1.6556,-1.651,-1.6431,-1.6425,-1.6523,-1.6523,-1.6524,0,-1.619,-1.6213,-1.6212,-1.6224,-1.627,-1.6269,-1.6288,-1.6317,-1.6328,-1.6347,-1.6354,-1.6372,-1.6383,-1.6397,-1.6434,-1.6453,-1.6435,-1.6469,-1.6452,-1.6451,-1.6446,-1.6446,-1.637,-1.6448,-1.6448,-1.6448,-1.6448,0,-1.6128,-1.6122,-1.6181,-1.618,-1.6176,-1.6221,-1.6214,-1.6238,-1.6264,-1.627,-1.6312,-1.6316,-1.6364,-1.6374,-1.6403,-1.6404,-1.6407,-1.6423,-1.6431,-1.6421,-1.6419,-1.6428,-1.6432,-1.6446,-1.6447,-1.6447,-1.6447,0,-1.6047,-1.6086,-1.6089,-1.6134,-1.6145,-1.614,-1.6178,-1.618,-1.6208,-1.6215,-1.6219,-1.6263,-1.6277,-1.6315,-1.6338,-1.6358,-1.6351,-1.6365,-1.6342,-1.6348,-1.6329,-1.6331,-1.6257,-1.625,-1.633,-1.6329,-1.6328,0,-1.6006,-1.6003,-1.6048,-1.6056,-1.6074,-1.6085,-1.6096,-1.6141,-1.6151,-1.6184,-1.6182,-1.62,-1.6216,-1.6236,-1.627,-1.6289,-1.6305,-1.6278,-1.6308,-1.6298,-1.6308,-1.6308,-1.6309,-1.6271,-1.627,-1.6269,-1.6268,0,-1.5929,-1.595,-1.5965,-1.5988,-1.6001,-1.6021,-1.6043,-1.6047,-1.6096,-1.6106,-1.6122,-1.6135,-1.616,-1.6178,-1.6202,-1.6222,-1.6254,-1.6259,-1.6256,-1.6246,-1.6234,-1.6243,-1.6327,-1.626,-1.6261,-1.6262,-1.6262,-1.6263,-1.5869,-1.587,-1.5903,-1.592,-1.5941,-1.5962,-1.5967,-1.5997,-1.6011,-1.6036,-1.6061,-1.6075,-1.6105,-1.6142,-1.6159,-1.6171,-1.6188,-1.6183,-1.6182,-1.6181,-1.6177,-1.6231,-1.6175,-1.6176,-1.6176,-1.6176,-1.6176,0,-1.5798,-1.5822,-1.5837,-1.5868,-1.5881,-1.5911,-1.5938,-1.5947,-1.5959,-1.5985,-1.6001,-1.6021,-1.6039,-1.6075,-1.6097,-1.6099,-1.6115,-1.6104,-1.6105,-1.611,-1.616,-1.6161,-1.6091,-1.6091,-1.6091,-1.6091,-1.6091,-1.6091,-1.5762,-1.5766,-1.5791,-1.5806,-1.5831,-1.5846,-1.5859,-1.5879,-1.59,-1.592,-1.5936,-1.596,-1.5991,-1.6015,-1.6034,-1.6044,-1.6051,-1.6036,-1.6051,-1.6097,-1.6105,-1.6113,-1.6115,-1.6036,-1.6036,-1.6,-1.5999,-1.5999]}]]